Weather History for Marshalltown, IA

Change the Weather History Date:

Friday, February 14, 2014

  Actual Average Record
Temperature  
Mean Temperature 5 °F 23 °F  
Max Temperature 13 °F 32 °F 63 °F (2006)
Min Temperature -3 °F 13 °F -6 °F (2007)
Degree Days  
Heating Degree Days 60 42  
Month to date heating degree days 832 614  
Since 1 July heating degree days 5452 4847  
Cooling Degree Days 0 0  
Month to date cooling degree days 0 0  
Year to date cooling degree days 0 0  
Moisture  
Dew Point 5 °F    
Average Humidity 83    
Maximum Humidity 95    
Minimum Humidity 70    
Precipitation  
Precipitation 0.00 in 0.02 in 0.06 in (2000)
Month to date precipitation 0.01 0.35  
Sea Level Pressure  
Sea Level Pressure 29.91 in    
Wind  
Wind Speed 13 mph (NW)    
Max Wind Speed 23 mph    
Max Gust Speed 26 mph    
Visibility 7 miles    
Events Snow    
T = Trace of Precipitation, MM = Missing Value Source: NWS Daily Summary

Daily Weather History Graph

Daily Weather History Graph

Search for Another Location

Airport:

Trip Planner

Search our weather history database for the weather conditions in past years. The results will help you decide how hot, cold, wet, or windy it might be!

Date:

Astronomy

Feb. 14, 2014 Rise Set
Actual Time 7:09 AM CST 5:43 PM CST
Civil Twilight 6:40 AM CST 6:11 PM CST
Nautical Twilight 6:07 AM CST 6:44 PM CST
Astronomical Twilight 5:35 AM CST 7:17 PM CST
Moon 5:48 PM CST (2/14) 6:35 AM CST (2/14)
Length of Visible Light 11h 31m
Length of Day
10h 34m
Full, 100% of the Moon is Illuminated
Feb 14
Full
Feb 14
Full
Feb 22
Last Quarter
Mar 1
New
Mar 8
First Quarter

Hourly Weather History & Observations

Time (CST) Temp. Windchill Dew Point Humidity Pressure Visibility Wind Dir Wind Speed Gust Speed Precip Events Conditions
12:53 AM 10.9 °F -1.8 °F 5.0 °F 77% 29.75 in 10.0 mi North 9.2 mph - N/A   Mostly Cloudy
1:53 AM 10.9 °F -3.4 °F 6.1 °F 81% 29.75 in 10.0 mi North 11.5 mph - N/A   Overcast
2:53 AM 10.9 °F -2.6 °F 5.0 °F 77% 29.79 in 10.0 mi NW 10.4 mph - N/A   Overcast
3:53 AM 12.0 °F 2.7 °F 6.1 °F 77% 29.77 in 10.0 mi NW 5.8 mph - N/A   Overcast
4:45 AM 12.0 °F 0.5 °F 7.0 °F 80% 29.73 in 1.8 mi NW 8.1 mph - 0.00 in Snow Light Snow
4:53 AM 12.0 °F 0.5 °F 8.1 °F 84% 29.79 in 1.2 mi NW 8.1 mph - 0.00 in Snow Light Snow
5:31 AM 10.9 °F -2.6 °F 8.1 °F 88% 29.75 in 1.2 mi NNW 10.4 mph - 0.00 in Snow Light Snow
5:53 AM 10.9 °F -4.7 °F 8.1 °F 88% 29.81 in 1.0 mi NNW 13.8 mph - 0.00 in Snow Light Snow
6:23 AM 10.9 °F -4.1 °F 8.1 °F 88% 29.77 in 0.8 mi NNW 12.7 mph - 0.00 in Snow Light Snow
6:53 AM 10.9 °F -4.7 °F 8.1 °F 88% 29.83 in 1.0 mi North 13.8 mph - 0.00 in Snow Light Snow
7:00 AM 10.9 °F -5.4 °F 8.1 °F 88% 29.78 in 1.2 mi North 15.0 mph - 0.00 in   Overcast
7:17 AM 10.9 °F -5.9 °F 7.0 °F 84% 29.80 in 1.8 mi NNW 16.1 mph - 0.00 in Snow Light Snow
7:53 AM 10.0 °F -3.7 °F 7.0 °F 87% 29.87 in 1.8 mi NNW 10.4 mph - 0.00 in Snow Light Snow
8:19 AM 10.0 °F -5.9 °F 7.0 °F 87% 29.82 in 2.5 mi NNW 13.8 mph - 0.00 in Snow Light Snow
8:28 AM 10.0 °F -6.5 °F 6.1 °F 84% 29.82 in 3.0 mi NNW 15.0 mph - 0.00 in Snow Light Snow
8:53 AM 10.0 °F -5.9 °F 6.1 °F 84% 29.90 in 9.0 mi NNW 13.8 mph - 0.00 in Snow Light Snow
9:53 AM 10.9 °F -6.5 °F 5.0 °F 77% 29.93 in 10.0 mi North 17.3 mph - 0.00 in   Overcast
10:53 AM 12.0 °F -5.6 °F 6.1 °F 77% 29.96 in 10.0 mi NNW 18.4 mph - N/A   Overcast
11:53 AM 12.0 °F -6.9 °F 5.0 °F 73% 29.97 in 10.0 mi North 21.9 mph - N/A   Partly Cloudy
12:19 PM 12.0 °F -4.5 °F 5.0 °F 73% 29.91 in 10.0 mi NW 16.1 mph - N/A   Mostly Cloudy
12:43 PM 12.0 °F -5.6 °F 6.1 °F 77% 29.91 in 10.0 mi NW 18.4 mph - N/A   Scattered Clouds
12:53 PM 12.0 °F -5.1 °F 5.0 °F 73% 29.96 in 10.0 mi NW 17.3 mph - N/A   Clear
1:31 PM 12.9 °F -4.9 °F 6.1 °F 74% 29.92 in 10.0 mi NW 19.6 mph - N/A   Mostly Cloudy
1:50 PM 12.2 °F -5.8 °F 6.8 °F 79% 29.92 in 9.0 mi NW 19.6 mph - N/A   Scattered Clouds
1:53 PM 12.9 °F -3.9 °F 6.1 °F 74% 29.98 in 9.0 mi NW 17.3 mph - N/A   Partly Cloudy
2:53 PM 12.9 °F -5.3 °F 6.1 °F 74% 30.01 in 10.0 mi NW 20.7 mph - N/A   Clear
3:53 PM 12.0 °F -4.0 °F 5.0 °F 73% 30.02 in 10.0 mi WNW 15.0 mph - N/A   Clear
4:53 PM 10.9 °F -5.9 °F 3.9 °F 73% 30.04 in 10.0 mi WNW 16.1 mph - N/A   Clear
5:53 PM 7.0 °F -9.8 °F 3.0 °F 84% 30.07 in 10.0 mi WNW 13.8 mph - N/A   Clear
6:53 PM 3.9 °F -12.2 °F -0.0 °F 84% 30.08 in 10.0 mi WNW 11.5 mph - N/A   Clear
7:53 PM 1.9 °F -12.9 °F -0.9 °F 88% 30.09 in 10.0 mi WNW 9.2 mph - N/A   Clear
8:53 PM -0.9 °F -17.4 °F -4.0 °F 87% 30.12 in 10.0 mi WNW 10.4 mph - N/A   Clear
9:53 PM -2.9 °F -17.7 °F -5.1 °F 90% 30.12 in 10.0 mi WNW 8.1 mph - N/A   Clear
10:53 PM -2.0 °F -15.4 °F -5.1 °F 87% 30.13 in 10.0 mi WNW 6.9 mph - N/A   Clear
11:53 PM -0.0 °F -9.9 °F -2.9 °F 88% 30.12 in 10.0 mi NW 4.6 mph - N/A   Clear